Location: *
(51.5175°N, 7.1450°E)
Time: 00:02:25
(UTC+00:00)

Daily predictions for brighter satellites

Satellite Brightness Start Highest point End
(mag) Time Altitude Azimuth Time Altitude Azimuth Time Altitude Azimuth
CENTAUR R/B 4.1 00:51:56 37° NNE 00:51:56 37° NNE 00:59:05 10° E
SL-16 R/B 4.4 01:21:22 22° NE 01:21:22 22° NE 01:23:18 10° NE
Cosmos 2322 Rocket 3.9 01:51:10 29° NNE 01:51:10 29° NNE 01:53:48 10° NNE
Resurs 1-4 Rocket 4.2 01:51:04 10° N 01:52:40 20° N 01:52:40 20° N
NOSS 3-2 (C) 4.4 01:56:46 54° N 01:57:44 57° NE 02:05:44 10° ESE
Cosmos 2360 Rocket 3.6 02:00:10 34° NE 02:00:10 34° NE 02:03:30 10° NE
Cosmos 1980 Rocket 4.1 02:06:35 22° N 02:06:35 22° N 02:09:04 10° NNE
Lacrosse 4 Rocket 4.5 02:10:28 11° NNE 02:10:28 11° NNE 02:10:35 10° NNE
NOSS 3-1 (A) 4.4 02:15:41 43° N 02:15:41 43° N 02:21:10 10° NE
ARIANE 5 R/B 4.2 02:11:35 10° NNE 02:13:58 28° NNE 02:13:58 28° NNE
USA 234 3.4 02:16:52 10° ESE 02:22:14 63° ESE 02:22:14 63° ESE
ADEOS II 3.4 02:19:03 10° NNE 02:22:03 35° NNE 02:22:03 35° NNE
ATLAS 3B R/B 3.2 02:30:07 40° NNW 02:32:14 55° NE 02:38:53 10° ESE
CZ-2D R/B 4.1 02:29:47 10° N 02:31:24 19° N 02:31:24 19° N
Cosmos 2278 Rocket 3.0 02:33:23 34° N 02:35:25 50° NE 02:40:55 10° SE
COSMOS 2455 3.0 02:40:32 67° E 02:40:32 67° E 02:46:12 10° NE
CENTAUR R/B 3.3 02:39:09 29° NW 02:43:34 70° NE 02:52:08 10° ESE
Cosmos 2333 Rocket 3.0 02:44:00 43° SE 02:44:43 45° ESE 02:50:08 10° NE
Cosmos 1709 Rocket 4.3 02:43:21 48° SSE 02:44:55 63° E 02:51:12 10° NNE
Meteor 2-14 Rocket 4.4 02:45:18 81° NE 02:45:18 81° NE 02:51:14 10° NNE
Gblst 52 Del rocket 4.3 02:51:18 68° E 02:51:18 68° E 02:56:14 10° E
IDEFIX/ARIANE 42P 3.6 02:50:40 10° NNE 02:55:40 42° E 02:58:16 25° SSE
Cosmos 2333 4.2 02:57:39 75° ESE 02:57:40 75° ESE 03:03:20 10° NNE
Aureole 1 Rocket 4.2 02:56:46 46° SSE 02:57:55 54° ESE 03:02:37 10° NE
ATLAS 2AS CENTAUR R/B 3.9 02:54:25 23° S 02:59:02 45° ESE 03:06:33 10° NE
USA 238 DEB 3.9 03:01:10 56° SSW 03:01:10 56° SSW 03:07:22 10° SSE
USA 238 3.9 03:01:13 57° SSW 03:01:13 57° SSW 03:07:28 10° SSE
SL-16 R/B 3.3 03:03:15 31° NNW 03:03:15 31° NNW 03:07:19 10° NNE
Cosmos 2322 3.6 03:06:51 82° NW 03:06:51 82° NW 03:12:36 10° NNE
Meteor 2-16 Rocket 4.3 03:05:52 65° S 03:06:52 89° E 03:13:00 10° N
Cosmos 2251 Rocket 3.5 03:07:07 83° NNE 03:07:07 83° NNE 03:12:20 10° NNE
Cosmos 2219 Rocket 2.4 03:08:19 55° SSE 03:09:20 66° ESE 03:14:53 10° NE
PSLV R/B 4.3 03:07:28 10° NNE 03:11:36 48° E 03:12:05 45° ESE
Cosmos 1745 Rocket 4.2 03:12:50 50° NW 03:12:50 50° NW 03:18:14 10° N
Cosmos 1025 Rocket 3.9 03:12:20 42° SE 03:13:04 47° E 03:17:12 10° NNE
Cosmos 2098 Rocket 4.3 03:13:37 56° WSW 03:14:44 62° WNW 03:21:56 10° N
Cosmos 2237 Rocket 3.6 03:14:26 10° S 03:19:32 35° ESE 03:24:39 10° NE
Cosmos 1953 4.1 03:16:10 10° N 03:19:52 33° ENE 03:23:30 10° SE
NOSS 3-2 (A) 4.0 03:23:04 45° W 03:24:56 54° SW 03:32:58 10° SSE
ERBS 4.1 03:26:53 29° ESE 03:26:53 29° ESE 03:29:22 10° ENE
Cosmos 1758 3.6 03:24:35 10° N 03:28:36 65° ENE 03:32:35 10° SSE
Cosmos 2181 Rocket 3.9 03:23:06 10° NNW 03:29:27 70° W 03:35:40 10° S
CZ-2C R/B 3.9 03:25:22 10° NNE 03:30:13 38° E 03:35:00 10° SSE
Cosmos 2369 Rocket 4.4 03:26:14 10° NNW 03:30:28 21° NE 03:34:40 10° E
Cosmos 292 Rocket 3.6 03:30:33 77° WSW 03:30:33 77° WSW 03:35:17 10° SSE
USA 267 3.2 03:24:00 10° ENE 03:30:36 84° SSE 03:32:57 44° SW
Cosmos 44 3.4 03:32:06 50° SSE 03:32:06 50° SSE 03:35:22 10° SSE
NOSS 2-2 (E) 3.3 03:32:40 80° NE 03:32:40 80° NE 03:36:58 10° NE
Cosmos 2322 Rocket 3.4 03:33:00 26° NW 03:33:00 26° NW 03:37:32 10° NNE
Resurs 1-4 Rocket 4.2 03:32:29 10° NNW 03:33:44 13° NNW 03:33:44 13° NNW
COSMOS 2428 2.6 03:33:56 49° SW 03:35:34 85° WNW 03:41:18 10° NNE
Cosmos 407 Rocket 4.5 03:31:49 10° S 03:36:40 45° ESE 03:41:33 10° NE
Cosmos 1536 Rocket 3.4 03:36:16 73° SSW 03:36:40 89° W 03:41:04 10° N
Cosmos 489 Rocket 4.3 03:30:30 10° NNW 03:36:45 82° WSW 03:43:02 10° SSE
Cosmos 44 Rocket 4.2 03:35:01 21° NNW 03:37:53 45° NE 03:42:23 10° ESE
Cosmos 2360 Rocket 2.9 03:41:57 35° NW 03:42:16 35° NW 03:47:27 10° NNE
Lacrosse 4 Rocket 3.8 03:46:47 11° NNW 03:46:47 11° NNW 03:48:04 10° N
Cosmos 1470 2.6 03:43:00 10° NNW 03:46:57 84° W 03:50:51 10° S
Cosmos 1707 3.8 03:44:28 10° SSE 03:48:12 46° E 03:52:00 10° NNE
CBERS 1 LM4 rocket 4.5 03:43:39 10° N 03:48:43 58° WNW 03:49:50 47° WSW
ADEOS 3.4 03:43:37 10° NNE 03:48:53 80° WNW 03:52:06 24° SSW
NOSS 3-2 (C) 4.1 03:44:17 24° WNW 03:48:55 56° SW 03:57:00 10° SSE
Cosmos 1980 Rocket 4.3 03:48:21 12° NW 03:49:57 13° NNW 03:52:26 10° N
Cosmos 1842 3.6 03:52:25 48° NW 03:52:25 48° NW 03:55:41 10° N
ARIANE 5 R/B 3.9 03:51:28 10° N 03:54:17 21° NW 03:54:17 21° NW
Cosmos 1726 4.1 03:52:44 10° N 03:56:01 30° ENE 03:59:18 10° SE
USA 32 3.9 03:52:25 10° S 03:57:39 83° W 04:02:56 10° N
ADEOS II 3.5 03:59:42 10° N 04:02:58 20° NW 04:02:58 20° NW
Meteor 1-4 Rocket 3.7 04:00:28 10° S 04:03:48 43° E 04:07:07 10° NNE
Cosmos 1943 Rocket 3.8 03:59:46 10° NNW 04:04:53 33° NE 04:09:59 10° ESE
Cosmos 1606 Rocket 3.6 04:00:39 10° N 04:05:00 78° E 04:09:19 10° SSE
GP-B 4.4 04:00:56 10° SSE 04:05:07 43° E 04:09:20 10° N
USA 234 3.7 04:00:55 10° SSE 04:06:56 38° SW 04:09:35 28° W
NOSS 3-4 (A) 3.8 04:03:38 13° SSW 04:09:05 65° SE 04:15:28 10° NE
NOSS 3-4 (C) 3.8 04:03:39 12° SSW 04:09:10 65° SE 04:15:34 10° NE
Meteor 1-16 Rocket 4.3 04:05:23 10° N 04:10:43 74° ENE 04:16:04 10° SSE
NOSS 2-2 (D) 3.5 04:09:57 43° W 04:10:56 58° NW 04:15:25 10° NE
SL-16 R/B 3.8 04:07:36 10° S 04:12:42 35° ESE 04:17:49 10° NE
H-2A R/B 2.4 04:14:09 10° N 04:18:13 60° WNW 04:21:56 13° SSW
SJ-6F 4.3 04:14:34 10° NNE 04:18:46 81° WNW 04:22:55 10° SSW
Cosmos 2278 Rocket 2.7 04:15:25 16° NW 04:19:22 36° WSW 04:24:28 10° S
Cosmos 1140 Rocket 3.8 04:14:51 10° SSW 04:20:00 69° ESE 04:25:10 10° NNE
Cosmos 2297 3.7 04:14:30 10° NNW 04:20:19 89° ENE 04:26:04 10° SSE
Cosmos 389 Rocket 2.2 04:17:48 12° SSW 04:20:57 80° WNW 04:24:26 10° N
PAYLOAD A 3.8 04:16:45 10° NNE 04:21:34 73° WNW 04:26:30 10° SSW
Cosmos 614 Rocket 3.9 04:17:22 10° SSW 04:22:37 83° WNW 04:27:52 10° NNE
ATLAS 3B R/B 2.8 04:17:26 14° NW 04:22:56 49° WSW 04:29:27 10° SSE
Cosmos 2327 Rocket 4.4 04:19:16 10° SSW 04:25:31 82° W 04:31:43 10° N
Cosmos 2154 Rocket 4.0 04:19:47 10° S 04:25:58 85° E 04:32:14 10° N
COSMOS 2455 3.6 04:23:42 24° W 04:26:34 36° NW 04:32:08 10° NNE
Okean 1-7 Rocket 4.2 04:23:06 10° S 04:27:29 61° E 04:31:57 10° NNE
Cosmos 2333 Rocket 2.7 04:26:03 23° WSW 04:29:05 41° NW 04:34:30 10° NNE
USA 116 4.5 04:26:27 10° SE 04:30:00 47° ENE 04:33:14 10° N
Cosmos 1610 Rocket 4.5 04:27:56 10° SSW 04:34:14 80° W 04:40:39 10° N
CENTAUR R/B 3.5 04:26:47 10° NW 04:34:15 45° WSW 04:42:18 10° S
IDEFIX/ARIANE 42P 3.2 04:30:27 10° N 04:35:12 35° WNW 04:39:03 14° WSW
Cosmos 2184 Rocket 4.1 04:29:33 10° SSW 04:35:39 57° WNW 04:41:53 10° N
COSMO-SKYMED 1 2.5 04:32:35 10° SSE 04:36:56 89° ENE 04:41:19 10° NNW
NOSS 3 (A) 4.4 04:36:52 23° SW 04:38:27 87° NW 04:41:45 10° NE
Cosmos 1356 3.3 04:36:17 10° NNW 04:39:43 62° W 04:43:08 10° S
Nadezhda 3 Rocket 4.0 04:35:18 10° NNW 04:41:35 62° W 04:47:48 10° S
Gblst 52 Del rocket 4.3 04:38:16 19° W 04:42:11 64° SSW 04:48:01 10° ESE
Aureole 1 Rocket 4.3 04:39:29 18° WSW 04:42:33 30° NW 04:46:37 10° N
Cosmos 1726 Rocket 3.6 04:41:39 10° NNW 04:45:51 51° W 04:50:02 10° S
Cosmos 2228 3.1 04:41:44 10° NNW 04:45:52 48° W 04:49:57 10° SSW
Cosmos 2344 4.4 04:37:41 10° NW 04:47:07 82° SW 05:00:19 10° SE
Cosmos 1437 Rocket 3.2 04:43:35 10° S 04:47:20 63° E 04:51:05 10° NNE
NOSS 2-2 (C) 4.2 04:45:32 20° W 04:47:48 36° NNW 04:52:09 10° NE
SL-16 R/B 4.2 04:45:30 10° NW 04:48:09 13° NNW 04:50:48 10° N
PSLV R/B 3.6 04:46:00 10° NNE 04:49:45 87° WNW 04:53:27 10° SSW
CZ-4B R/B 2.9 04:45:46 10° N 04:49:47 54° WNW 04:53:35 10° SSW
ATLAS 2AS CENTAUR R/B 3.1 04:41:55 10° WSW 04:49:54 68° NW 04:57:53 10° NE
NOSS 0 Rocket 4.1 04:44:07 10° SW 04:50:10 56° NW 04:56:18 10° NNE
Cosmos 1025 Rocket 4.2 04:49:16 17° W 04:50:57 22° WNW 04:54:18 10° NNW
Cosmos 2341 Rocket 4.2 04:45:10 10° S 04:51:24 80° E 04:57:39 10° NNE
Cosmos 2219 Rocket 3.1 04:50:04 16° W 04:53:44 30° NW 04:58:40 10° NNE
Cosmos 1023 Rocket 4.4 04:49:08 10° SW 04:54:17 66° WNW 04:59:25 10° NNE
ALOS 3.2 04:50:58 10° NNE 04:55:34 53° E 05:00:08 10° S
Cosmos 1953 3.2 04:52:45 10° NNW 04:56:10 27° W 04:59:33 10° SSW
Meteor PRIRODA 3.6 04:52:51 10° N 04:56:35 62° WNW 05:00:16 10° SSW
Okean O Rocket 2.5 04:54:15 10° NNE 04:58:37 55° E 05:02:55 10° S
ERBS 2.5 04:59:56 15° W 05:02:35 57° NNW 05:05:57 10° ENE
Cosmos 2237 Rocket 2.4 04:57:54 10° SW 05:03:27 51° NW 05:09:01 10° NNE
CZ-4B DEB 4.3 04:58:26 10° NNE 05:03:57 83° ESE 05:09:25 10° SSW
Cosmos 2058 Rocket 3.2 05:00:45 10° NNW 05:05:01 50° W 05:09:18 10° S
Cosmos 1763 Rocket 3.6 05:01:18 10° NNW 05:06:32 82° ENE 05:11:40 10° SSE
Meteor 2-10 4.2 05:01:49 10° NNW 05:06:48 50° W 05:11:55 10° S
MSX 4.5 05:01:56 10° N 05:07:00 33° WNW 05:12:02 10° WSW
Cosmos 676 Rocket 4.0 05:02:34 10° SW 05:07:49 66° WNW 05:13:04 10° NNE
In-Cosmos 22 4.1 05:02:48 10° SSW 05:08:08 69° WNW 05:13:39 10° N
Cosmos 1908 3.2 05:04:33 10° NNW 05:08:22 64° W 05:12:09 10° S
CZ-2C R/B 3.0 05:03:38 10° N 05:08:27 39° WNW 05:13:14 10° SW
PAYLOAD B 4.4 05:06:13 10° NNE 05:11:51 86° ESE 05:17:24 10° SSW
USA 267 3.5 05:07:04 10° ENE 05:13:29 60° N 05:19:54 10° W
Cosmos 540 Rocket 4.4 05:09:11 10° NNW 05:14:14 50° ENE 05:19:14 10° SE
Meteor 1-31 Rocket 3.6 05:11:28 10° N 05:14:47 28° WNW 05:18:03 10° SW
Cosmos 2369 Rocket 2.4 05:09:50 10° NNW 05:15:28 75° ENE 05:21:03 10° SE
COBE Rocket 4.3 05:10:51 10° SSW 05:15:39 43° W 05:20:35 10° NNW
Helios 1A Rocket 3.0 05:11:33 10° NNE 05:15:44 90° ESE 05:19:53 10° SSW
Cosmos 407 Rocket 4.2 05:14:11 10° WSW 05:18:49 34° NW 05:23:30 10° NNE
Cosmos 2322 Rocket 4.3 05:17:19 10° NNW 05:19:04 11° NNW 05:20:49 10° N
Cosmos 44 Rocket 3.8 05:15:00 10° NW 05:19:22 38° WSW 05:23:41 10° S
Iridium 51 4.1 05:16:22 10° N 05:20:16 62° W 05:23:51 10° S
COSMOS 2428 4.0 05:16:12 10° W 05:20:41 23° NW 05:25:12 10° NNE
Cosmos 1980 4.3 05:15:36 10° WSW 05:20:52 38° NW 05:26:09 10° NNE
SL-8 Rocket 4.0 05:14:40 10° S 05:20:52 88° W 05:27:05 10° N
CZ-4B R/B 3.3 05:17:21 10° NNE 05:22:43 81° ESE 05:28:00 10° SSW
Cosmos 1707 4.2 05:21:29 10° WSW 05:24:21 19° WNW 05:27:15 10° NNW
SKYMED 2 4.3 05:21:14 10° SSW 05:25:09 32° W 05:29:06 10° NNW
Cosmos 2360 Rocket 4.1 05:25:20 10° NW 05:28:04 13° NNW 05:30:49 10° N
Cosmos 2366 rocket 4.2 05:22:47 10° S 05:29:10 86° E 05:35:34 10° N
MOS 1-B 4.4 05:23:36 10° N 05:29:20 60° WNW 05:35:02 10° SW
RESURS DK-1 2.4 05:25:42 10° SW 05:29:48 60° NW 05:33:55 10° NNE
